Toledo Express Airport
KTOL : now visible

Airfield :











YOU CAN JOIN US ON...

 
LOGIN :

Register | Disclaimer

   EN    FR    IT 

 









Legend :    VFR   Marginal VFR   IFR   Intensive IFR   Very Intensive IFR
Visi :
Ceiling :
>= 8 km
>= 3000ft
5 to 8 km
1000 to 3000 ft
1500m to 5 km
500 to 1000 ft
800 to 1500m
200 to 500 ft
< 800m
< 200 ft
Symbols :   Thunderstorms  Fog  Heavy snow  Heavy precipitations  Wind > 20 kt






- Airport Elevation : 683 ft
- IATA code : TOL


KTOL - Toledo Express

CURRENT METAR :
  • 250352Z 00000KT 10SM FEW041 03/00 A3022 RMK AO2 SLP240 T00330000

EXPIRED METARs :
  • 250252Z 00000KT 10SM SCT041 02/M01 A3022 RMK AO2 SLP238 T00221006 51007
  • 250152Z 00000KT 10SM CLR 03/M01 A3022 RMK AO2 SLP238 T00281006

TAF KTOL
Valid from the 25 at 00:00 until the 26 at 00:00 UTC


242320Z 2500/2524 06004KT P6SM FEW250
FM250300 04004KT P6SM SCT040
FM251300 04008KT P6SM BKN060
KZOB FIR / North America



MET'MAP, your aeronautical weather chart ! - Copyright ORBIFLY December 2007 - Disclaimer

ORBIFLY MET'MAP TEAM :

Programming & Development : Alexandra Zaïnal
Concept & original design : Baudouin d'Aumeries
Assistance for programming : Marc-Olivier Méhu
Technical & hardware support : Manuel Goepfert

Contact : metmap@orbifly.com




SOURCES & CREDITS :

   NOAA       Earth
Advisory